This demonstration page uses our WeatherBlox Daily Observations layout. Learn more.

Left ArrowRight Arrow

Hourly Observations for August 19, 2015

Temp ( °F °C ) Dew Point ( °F °C ) Humidity (%) Winds ( mph kmh ) Pressure ( in mb ) Visibility ( mi km ) Precip ( " mm )
12:53 am 00:53 Clear 87 30.6 56 13.3 35 35 SSE 18 30 29.61 1003 10 16 0.00 0.00
1:53 am 01:53 Clear 85 29.4 56 13.3 37 37 SSE 16 26 29.60 1002 10 16 0.00 0.00
2:53 am 02:53 Clear 83 28.3 56 13.3 40 40 SSE 13 20 29.60 1002 10 16 0.00 0.00
3:53 am 03:53 undefined 79 26.1 56 13.3 45 45 W 7 11 29.60 1002 N/A 0.00 0.00
4:53 am 04:53 Clear 76 24.4 55 12.8 48 48 SSE 6 9 29.60 1003 10 16 0.00 0.00
5:53 am 05:53 Clear 76 24.4 55 12.8 48 48 SE 7 11 29.62 1003 10 16 0.00 0.00
6:53 am 06:53 Clear 76 24.4 55 12.8 48 48 SSE 9 15 29.62 1003 10 16 0.00 0.00
7:53 am 07:53 Sunny 77 25 55 12.8 47 47 SSE 8 13 29.65 1004 10 16 0.00 0.00
8:53 am 08:53 Sunny 82 27.8 58 14.4 44 44 S 7 11 29.69 1005 10 16 0.00 0.00
9:53 am 09:53 Sunny 83 28.3 60 15.6 46 46 WNW 13 20 29.70 1006 10 16 0.00 0.00
10:53 am 10:53 Sunny 84 28.9 61 16.1 46 46 WNW 13 20 29.72 1006 10 16 0.00 0.00
11:53 am 11:53 Sunny 88 31.1 62 16.7 42 42 VRB 5 7 29.73 1007 10 16 0.00 0.00
12:53 pm 12:53 Sunny 93 33.9 59 15 32 32 NE 16 26 29.73 1007 10 16 0.00 0.00
1:53 pm 13:53 Sunny 91 32.8 63 17.2 39 39 NE 22 35 29.75 1007 10 16 0.00 0.00
2:53 pm 14:53 Sunny 87 30.6 62 16.7 43 43 NNE 26 43 29.78 1008 10 16 0.00 0.00
3:53 pm 15:53 Sunny 88 31.1 62 16.7 42 42 NNE 20 31 29.78 1008 10 16 0.00 0.00
4:53 pm 16:53 Sunny 87 30.6 62 16.7 43 43 NE 21 33 29.78 1008 10 16 0.00 0.00
5:53 pm 17:53 Sunny 86 30 62 16.7 45 45 NNE 17 28 29.77 1008 10 16 0.00 0.00
6:53 pm 18:53 Sunny 84 28.9 61 16.1 46 46 NE 16 26 29.78 1008 10 16 0.00 0.00
7:53 pm 19:53 Sunny 80 26.7 60 15.6 51 51 ENE 17 28 29.82 1010 10 16 0.00 0.00
8:53 pm 20:53 Clear 74 23.3 59 15 60 60 ENE 15 24 29.85 1011 10 16 0.00 0.00
9:53 pm 21:53 Clear 72 22.2 58 14.4 61 61 ENE 14 22 29.88 1012 10 16 0.00 0.00
10:53 pm 22:53 Clear 70 21.1 55 12.8 59 59 ENE 12 19 29.93 1013 10 16 0.00 0.00
11:53 pm 23:53 Clear 69 20.6 53 11.7 57 57 ENE 8 13 29.93 1014 10 16 0.00 0.00

Powered by AerisWeather